Theta_e
309 310 311 310 308 310 309 311 312 311 311 312 310 309 309 308 305 305 304 303 303 303 305 305 306 306 305 306 308 310 312 313 314 315 318 319 321 322 323 323 325 326 326 325
310 311 310 310 309 311 312 313 312 310 310 311 310 311 310 308 306 306 308 306 305 304 301 302 304 305 304 306 308 310 312 313 313 315 317 318 319 318 320 320 320 320 321 321
311 313 310 310 311 312 311 311 311 313 311 309 309 310 309 309 307 306 305 307 307 306 306 301 300 302 303 305 307 309 311 313 313 315 316 315 316 313 313 314 317 317 318 318
311 311 312 311 312 311 313 310 311 312 313 314 310 314 310 310 310 308 309 306 306 306 304 302 300 300 302 304 306 308 311 312 313 313 315 316 315 308 310 314 315 315 314 314
312 312 312 313 312 311 313 310 311 312 312 312 312 313 313 311 312 311 312 309 306 306 303 302 300 301 302 303 305 307 310 311 312 313 313 314 313 313 313 310 311 312 310 308
310 309 310 312 311 311 309 311 310 310 311 315 312 313 312 311 312 311 311 310 308 305 302 300 301 301 301 303 304 306 309 310 311 311 311 312 312 310 307 304 305 307 306 303
312 311 310 310 312 310 311 313 315 313 313 317 310 312 315 311 310 309 310 309 307 305 302 299 297 298 301 302 304 305 308 308 309 310 309 309 310 310 310 306 306 303 300 298
312 310 310 309 312 313 311 313 314 313 313 312 310 315 314 310 308 307 306 306 305 304 301 299 297 298 300 302 303 304 306 307 308 308 307 307 308 308 306 308 306 305 304 297
311 312 310 309 310 312 311 314 312 313 297 310 311 310 309 309 309 308 307 306 306 303 302 299 296 298 300 301 302 304 305 306 307 307 306 306 306 305 304 304 304 301 300 294
311 313 310 310 310 310 311 310 314 311 314 312 312 312 314 313 312 310 308 308 307 304 301 297 295 297 299 301 302 303 305 305 306 305 305 305 303 302 302 303 302 300 295 291
311 313 311 310 311 312 312 313 312 312 311 313 312 314 308 311 310 310 310 308 307 305 301 298 295 297 299 301 301 302 304 305 304 304 303 302 301 300 302 302 301 299 293 289
310 313 311 311 309 307 309 311 311 313 312 310 311 316 309 309 310 308 308 307 307 303 301 297 295 296 297 299 300 301 302 303 303 304 303 301 300 299 300 299 298 296 291 288
312 315 311 314 312 308 310 310 311 310 309 314 313 317 307 308 308 307 307 306 305 303 299 296 293 293 295 297 298 299 300 302 303 303 301 299 298 296 297 297 295 294 289 288
314 316 317 320 316 311 312 310 311 314 316 316 315 315 313 312 312 309 307 305 304 303 300 296 293 292 294 295 296 297 298 299 300 300 299 298 297 296 296 296 294 291 288 287
316 318 315 316 313 311 312 312 311 314 314 315 316 315 315 313 312 311 308 306 305 303 300 297 296 294 293 294 295 296 297 297 297 297 297 297 296 296 294 293 291 289 287 286
314 318 317 317 316 314 316 311 312 312 313 314 314 315 314 313 310 308 307 307 308 305 302 301 298 295 293 293 294 294 295 296 295 295 295 294 294 293 291 290 289 287 286 286
316 316 317 321 316 316 320 317 317 315 314 314 315 315 314 314 313 312 311 307 307 306 306 302 300 298 297 295 294 294 294 293 293 293 292 293 292 290 289 289 287 286 285 285
314 316 316 321 316 322 318 313 315 316 315 314 313 314 314 314 312 311 308 307 308 305 304 303 302 300 299 298 296 294 294 292 291 291 291 290 290 289 288 287 286 285 285 284
315 316 320 321 321 318 316 312 314 314 316 314 314 313 313 312 308 311 307 305 307 306 303 302 304 303 302 299 297 294 292 291 289 289 289 288 289 287 287 286 285 284 284 283
315 317 318 318 321 322 317 314 310 311 318 314 313 314 314 310 313 314 305 302 301 298 298 299 300 300 300 297 295 292 290 289 288 288 288 287 287 287 286 286 285 284 284 284
316 317 320 320 321 315 308 302 307 319 316 297 303 309 307 312 312 300 297 299 294 295 294 295 295 294 294 293 293 290 288 287 288 288 288 287 287 287 286 285 284 284 284 284
317 318 318 319 320 321 303 308 314 307 296 296 300 300 301 301 299 296 295 295 293 293 292 292 290 289 290 291 291 288 287 288 288 288 287 286 286 286 286 286 285 285 284 285
315 313 315 316 317 310 301 305 299 295 295 295 297 294 295 297 297 295 294 292 291 291 291 290 290 288 289 289 291 288 287 288 287 287 286 286 286 286 285 284 284 286 288 287
305 302 312 312 308 304 302 297 296 293 294 293 293 294 293 296 295 294 292 291 290 286 288 289 288 287 288 289 289 290 288 288 287 287 286 286 286 286 286 286 288 289 285 284
301 304 308 307 302 298 298 295 296 294 294 293 293 293 293 295 294 293 289 289 287 287 289 291 288 287 286 290 290 289 289 289 289 289 289 288 288 287 287 287 287 287 287 287
299 303 308 311 302 305 304 297 295 297 297 294 291 290 289 290 290 288 287 286 286 286 287 287 286 284 283 285 285 287 289 291 292 290 289 289 288 287 287 286 283 283 284 282
Wind_Speed
3 4 7 11 6 2 5 3 4 4 3 3 7 9 11 9 6 11 10 10 14 15 25 25 29 29 27 26 26 26 24 23 24 26 25 25 24 21 20 20 20 21 22 21
5 7 9 4 4 3 2 3 6 5 3 2 8 14 13 7 8 10 14 14 16 11 9 16 29 32 34 33 31 28 28 27 29 30 30 25 26 22 21 21 19 18 19 21
7 4 4 7 4 5 5 6 5 6 4 4 5 8 8 7 5 6 11 15 12 17 18 13 21 35 36 38 37 35 33 31 31 32 30 23 26 21 21 21 21 19 20 22
6 3 4 3 4 8 5 7 5 3 2 4 1 6 7 7 9 9 15 13 19 18 13 9 18 25 36 45 41 38 35 34 34 35 33 33 35 26 23 27 24 21 22 23
8 8 5 5 6 7 6 4 6 3 3 3 1 2 5 2 8 14 15 15 15 13 11 13 15 28 36 34 41 39 36 35 36 36 35 34 33 32 29 29 26 25 25 24
4 1 6 8 2 4 8 6 6 4 2 5 11 8 7 6 9 6 11 14 11 7 8 7 17 23 28 32 37 39 37 37 37 37 36 36 35 33 32 32 30 29 27 26
1 5 3 3 5 3 3 6 2 3 1 9 3 4 16 6 10 9 13 14 7 6 5 7 9 15 23 30 33 37 39 38 38 38 37 37 36 36 36 37 35 32 30 30
8 7 11 7 9 8 9 8 6 7 4 5 3 8 8 10 9 10 7 12 6 7 7 8 8 15 21 26 31 35 36 36 40 40 39 37 36 37 36 38 38 38 37 36
6 6 1 3 2 9 6 8 3 1 2 3 5 8 9 8 12 10 13 8 11 8 7 8 9 18 22 26 31 35 35 37 41 42 41 38 37 37 38 38 38 39 40 40
5 4 2 0 2 2 4 6 3 2 3 5 6 7 8 7 9 12 10 11 9 5 7 7 7 16 22 26 30 34 35 37 41 42 41 41 38 37 37 38 40 40 40 42
5 4 1 3 7 10 3 4 1 4 5 5 3 9 8 10 12 9 10 8 6 6 8 7 6 14 19 22 26 32 36 38 39 41 40 39 37 37 37 38 40 41 42 44
8 4 5 10 2 3 1 5 7 4 5 4 2 15 5 8 7 6 10 7 3 4 6 6 7 13 18 23 27 32 33 37 40 41 41 40 38 38 38 38 41 42 45 45
9 4 2 7 2 3 5 6 7 4 3 13 5 15 1 1 6 5 8 8 5 5 5 5 5 8 17 23 27 31 36 40 41 40 41 40 38 39 39 39 40 42 46 46
8 5 10 15 5 4 6 8 13 14 4 21 14 34 10 2 4 7 8 10 9 8 7 6 7 8 16 21 25 29 32 36 40 40 41 42 42 41 40 39 40 43 46 45
9 8 9 22 8 3 5 5 10 17 29 12 31 20 31 15 14 15 11 8 10 9 8 9 9 9 14 20 25 29 32 36 40 39 41 44 42 41 40 39 40 43 45 44
5 6 10 20 17 9 9 8 14 23 23 17 30 28 32 20 7 8 11 13 14 10 10 11 9 7 14 23 27 28 33 37 40 40 41 40 42 41 41 40 41 44 45 45
10 8 7 16 15 7 13 25 25 21 24 21 21 36 21 21 17 19 16 11 13 13 15 9 12 13 20 26 28 32 31 32 38 38 37 41 41 40 40 39 40 43 46 45
9 13 8 10 5 14 17 8 23 25 27 23 24 34 31 24 18 15 10 11 15 11 11 12 10 14 24 26 28 26 28 34 35 34 36 38 39 37 38 39 40 41 43 44
17 15 11 14 19 17 12 11 14 12 22 23 26 31 32 24 7 27 11 14 16 11 9 10 17 19 18 22 24 26 27 29 28 30 31 35 37 35 36 36 37 38 39 39
24 21 12 8 11 20 22 25 8 6 10 17 20 26 26 6 9 21 4 5 3 5 6 9 11 10 12 14 18 24 24 25 24 25 28 30 32 34 36 35 36 36 36 36
19 18 25 21 12 4 8 3 7 13 9 2 1 10 2 10 9 2 5 2 4 4 8 7 5 4 1 8 16 18 19 19 20 23 25 27 30 31 30 32 31 32 30 28
14 11 16 15 15 13 5 2 11 4 1 2 1 2 3 4 5 0 2 3 4 4 6 6 11 12 8 10 14 15 15 14 16 19 22 24 26 27 27 28 26 27 26 21
5 5 1 6 1 3 0 5 3 6 2 5 4 3 4 3 2 2 1 4 4 4 6 8 15 16 11 9 8 13 12 13 17 19 20 21 22 23 25 23 22 21 21 24
8 5 5 1 6 8 11 4 4 6 6 6 5 5 6 5 4 4 4 4 4 6 6 10 15 15 15 11 9 11 15 16 19 20 20 20 20 19 19 21 23 26 27 23
5 8 8 5 4 1 6 5 5 3 4 5 2 0 2 6 5 5 4 4 4 7 9 11 13 15 15 13 14 12 12 15 16 17 19 20 21 23 23 24 26 26 26 26
4 6 5 8 3 4 3 11 12 11 7 6 6 4 2 3 5 5 5 5 7 9 13 17 18 19 16 17 17 13 10 10 13 14 16 18 20 20 21 22 17 17 17 18
Wind_Direction
13 101 213 205 193 128 135 182 231 245 261 210 237 261 258 264 228 253 245 239 241 234 245 239 233 225 221 220 217 214 209 206 198 193 191 188 188 189 190 190 189 190 193 188
44 231 222 141 155 157 148 198 255 284 247 199 279 269 263 233 235 214 232 235 237 237 223 219 225 220 218 217 216 213 211 204 200 198 193 190 188 190 192 191 192 189 195 196
169 216 121 148 150 169 215 190 220 228 335 253 321 281 257 261 246 251 245 239 242 230 236 219 204 215 215 217 216 213 209 205 201 201 196 191 186 185 185 184 182 183 198 193
230 250 156 166 190 165 237 208 172 201 59 249 92 286 282 259 256 232 250 230 238 237 238 220 204 205 211 219 218 215 210 205 202 201 200 196 190 180 189 184 182 185 187 184
234 175 170 181 204 155 227 127 157 137 179 320 148 285 245 335 269 257 252 249 241 237 221 223 207 211 216 211 214 213 209 206 205 202 204 201 199 195 188 184 182 185 186 189
233 171 169 193 126 158 148 82 56 52 95 275 185 172 254 194 213 252 256 256 257 250 242 234 223 216 211 210 211 210 208 208 207 204 205 207 202 192 184 183 181 181 185 186
119 214 175 150 94 50 123 98 314 330 4 241 59 166 248 295 264 223 250 263 265 228 217 221 202 193 195 197 199 202 204 205 206 205 207 207 206 201 196 191 186 182 182 183
186 273 164 188 187 168 199 163 170 214 208 270 102 233 248 239 267 261 266 258 253 219 223 234 215 201 197 196 197 197 197 201 205 206 208 208 209 207 203 198 193 190 191 186
173 268 195 147 159 153 196 204 195 55 75 11 233 281 295 264 271 270 249 275 259 225 238 237 211 207 200 198 200 199 197 200 205 206 208 207 209 208 206 202 200 195 191 186
213 279 38 127 135 27 169 163 81 348 196 248 269 268 229 276 255 254 265 247 268 234 245 234 215 208 209 208 205 202 204 202 205 206 208 208 209 210 210 206 201 200 193 187
156 168 251 141 209 171 138 208 143 137 158 184 289 265 215 218 234 254 263 261 257 244 247 239 221 220 216 212 207 203 203 204 206 208 208 209 208 208 208 209 207 203 195 190
210 163 213 212 225 233 255 226 155 144 224 241 176 266 146 231 256 246 265 284 287 250 241 233 211 205 204 206 208 207 204 206 210 209 209 210 210 209 209 209 208 204 197 193
171 190 332 317 343 343 209 199 207 108 80 229 147 258 80 62 305 315 284 295 300 254 228 217 199 204 205 207 207 207 207 209 212 211 210 210 210 211 210 211 209 204 199 196
160 152 196 228 200 140 195 193 194 198 187 246 230 260 251 342 297 288 281 267 255 243 237 226 216 216 214 210 209 210 212 212 213 211 211 212 211 212 212 211 210 204 201 198
175 202 207 244 239 210 202 179 188 204 228 214 255 246 262 254 249 246 244 258 249 248 236 231 226 214 209 212 212 213 215 212 215 210 210 212 212 211 210 210 207 203 201 200
198 225 217 253 250 231 251 212 214 218 236 238 253 259 259 264 258 227 236 251 257 264 248 240 233 210 211 212 213 209 211 212 212 207 209 211 211 208 208 207 205 203 200 200
175 175 189 241 238 238 252 241 248 250 246 233 244 252 267 266 258 255 247 243 247 246 254 243 228 223 225 218 212 210 208 205 208 205 207 209 209 206 206 206 203 202 201 200
172 195 209 245 227 229 239 200 226 234 241 232 247 257 260 257 262 267 239 235 250 245 245 245 242 235 235 234 224 217 208 206 202 200 203 205 204 200 202 202 201 199 200 201
231 216 235 228 235 253 282 244 197 171 246 231 231 248 257 258 310 276 234 224 242 256 253 248 258 259 255 238 227 209 200 201 196 198 198 199 198 192 196 196 196 196 196 199
221 214 215 239 236 239 239 244 155 118 246 243 214 241 249 178 239 265 33 355 42 355 334 312 304 274 249 227 211 192 186 188 192 195 198 198 196 197 194 194 195 197 200 200
210 210 224 225 242 256 261 187 149 174 231 35 177 244 327 205 230 349 331 297 336 347 345 358 40 54 160 176 183 175 180 187 199 197 197 195 198 199 197 194 192 195 195 198
212 206 219 223 232 233 196 94 171 199 173 179 193 196 242 263 307 309 301 315 8 35 42 66 84 82 100 150 166 159 169 183 186 185 183 186 188 190 192 193 190 192 193 195
211 208 258 220 200 345 189 265 169 160 170 201 179 208 217 236 246 284 84 41 41 71 89 99 109 103 103 128 145 141 153 167 167 170 172 176 182 184 186 176 181 181 203 209
224 182 222 181 214 226 229 265 203 178 176 190 186 176 174 154 132 96 74 59 52 26 51 109 110 96 87 104 123 139 152 159 160 160 165 171 177 179 187 191 199 209 202 201
250 150 197 260 253 235 224 194 169 192 166 149 141 46 115 132 134 119 97 70 59 56 60 86 82 87 89 98 98 127 144 158 158 160 167 173 182 187 191 200 206 210 217 220
190 192 197 235 285 254 225 191 168 169 188 163 156 161 92 109 124 109 95 91 95 93 104 101 105 100 94 95 95 106 137 167 167 163 172 181 185 188 191 193 194 214 228 226